AIC424 VAAH-VIDP

Flight info

Callsign AIC424
Flight time 1h 9m
Altitude 37000
Route UUD1A UUD A347 UKASO UKASO7E
Aircraft B789/H-SDE1E2E3FGHIJ2J3J4J5M1RWXY/LB1D1

Departure

Time 2026-05-04 10:33
Airport Sardar Vallabh Patel International Airport (VAAH)

Arrival

Time 2026-05-04 11:42
Airport Indira Gandhi International Airport (VIDP)
Time Latitude Longitude Altitude Speed Heading
2026-05-04 10:00 23.07028 72.61989 201 ft 0 kts 46°
2026-05-04 10:21 23.07027 72.61989 201 ft 1 kts 45°
2026-05-04 10:22 23.07008 72.61944 214 ft 4 kts 110°
2026-05-04 10:22 23.07023 72.61921 214 ft 4 kts 137°
2026-05-04 10:22 23.07036 72.61908 214 ft 2 kts 134°
2026-05-04 10:25 23.07025 72.61920 212 ft 6 kts 134°
2026-05-04 10:25 23.06971 72.61981 214 ft 16 kts 133°
2026-05-04 10:25 23.06899 72.62067 208 ft 11 kts 118°
2026-05-04 10:25 23.06901 72.62133 208 ft 10 kts 90°
2026-05-04 10:26 23.06868 72.62195 209 ft 11 kts 129°
2026-05-04 10:26 23.06859 72.62265 208 ft 10 kts 63°
2026-05-04 10:26 23.06920 72.62338 209 ft 16 kts 45°
2026-05-04 10:26 23.07016 72.62443 208 ft 23 kts 45°
2026-05-04 10:27 23.07138 72.62574 206 ft 25 kts 45°
2026-05-04 10:27 23.07264 72.62707 205 ft 25 kts 43°
2026-05-04 10:27 23.07390 72.62838 207 ft 25 kts 45°
2026-05-04 10:27 23.07511 72.62969 206 ft 25 kts 43°
2026-05-04 10:28 23.07635 72.63097 206 ft 24 kts 44°
2026-05-04 10:28 23.07755 72.63225 211 ft 25 kts 45°
2026-05-04 10:28 23.07868 72.63349 206 ft 18 kts 51°
2026-05-04 10:28 23.07860 72.63448 211 ft 12 kts 132°
2026-05-04 10:29 23.07820 72.63513 210 ft 9 kts 102°
2026-05-04 10:29 23.07836 72.63566 210 ft 8 kts 54°
2026-05-04 10:29 23.07890 72.63626 206 ft 16 kts 43°
2026-05-04 10:29 23.07995 72.63737 208 ft 26 kts 44°
2026-05-04 10:30 23.08126 72.63877 208 ft 25 kts 45°
2026-05-04 10:30 23.08249 72.64009 211 ft 25 kts 44°
2026-05-04 10:30 23.08380 72.64149 212 ft 27 kts 45°
2026-05-04 10:30 23.08515 72.64294 213 ft 28 kts 45°
2026-05-04 10:31 23.08657 72.64445 211 ft 29 kts 44°
2026-05-04 10:31 23.08805 72.64579 204 ft 25 kts 22°
2026-05-04 10:32 23.08789 72.64592 210 ft 15 kts 229°
2026-05-04 10:33 23.08752 72.64549 208 ft 0 kts 225°
2026-05-04 10:33 23.08596 72.64381 207 ft 80 kts 224°
2026-05-04 10:33 23.07972 72.63712 205 ft 170 kts 224°
2026-05-04 10:33 23.07031 72.62683 803 ft 201 kts 222°
2026-05-04 10:34 23.05967 72.61544 1364 ft 230 kts 225°
2026-05-04 10:34 23.04801 72.60187 1969 ft 251 kts 229°
2026-05-04 10:34 23.04149 72.58447 3029 ft 259 kts 266°
2026-05-04 10:34 23.04464 72.56500 4029 ft 268 kts 290°
2026-05-04 10:35 23.05529 72.54825 5086 ft 277 kts 316°
2026-05-04 10:35 23.07206 72.53821 6314 ft 277 kts 342°
2026-05-04 10:35 23.09137 72.53740 7376 ft 286 kts 11°
2026-05-04 10:35 23.10959 72.54659 8312 ft 294 kts 31°
2026-05-04 10:36 23.12653 72.55928 9327 ft 297 kts 33°
2026-05-04 10:36 23.14349 72.57241 10217 ft 302 kts 32°
2026-05-04 10:36 23.16159 72.58574 10586 ft 328 kts 31°
2026-05-04 10:36 23.18139 72.60001 10790 ft 355 kts 32°
2026-05-04 10:37 23.20261 72.61555 10907 ft 380 kts 32°
2026-05-04 10:37 23.22460 72.63186 11665 ft 383 kts 32°
2026-05-04 10:37 23.24679 72.64823 12419 ft 388 kts 32°
2026-05-04 10:37 23.26930 72.66473 13181 ft 392 kts 32°
2026-05-04 10:39 23.40876 72.76750 17178 ft 414 kts 31°
2026-05-04 10:39 23.43271 72.78517 17757 ft 418 kts 31°
2026-05-04 10:39 23.45689 72.80302 18296 ft 421 kts 31°
2026-05-04 10:40 23.48119 72.82097 18794 ft 425 kts 31°
2026-05-04 10:40 23.50574 72.83911 19290 ft 428 kts 31°
2026-05-04 10:40 23.53048 72.85741 19765 ft 431 kts 31°
2026-05-04 10:40 23.55541 72.87584 20238 ft 435 kts 31°
2026-05-04 10:41 23.58056 72.89446 20697 ft 438 kts 31°
2026-05-04 10:41 23.60586 72.91319 21147 ft 441 kts 31°
2026-05-04 10:41 23.63128 72.93202 21548 ft 444 kts 31°
2026-05-04 10:41 23.65693 72.95103 21976 ft 447 kts 31°
2026-05-04 10:42 23.68277 72.97018 22347 ft 451 kts 31°
2026-05-04 10:42 23.70880 72.98949 22719 ft 454 kts 31°
2026-05-04 10:42 23.73498 73.00892 23100 ft 457 kts 31°
2026-05-04 10:42 23.76131 73.02847 23451 ft 459 kts 31°
2026-05-04 10:43 23.78772 73.04810 23809 ft 460 kts 31°
2026-05-04 10:44 23.97536 73.18777 25826 ft 472 kts 31°
2026-05-04 10:45 24.00254 73.20805 26117 ft 474 kts 31°
2026-05-04 10:45 24.02948 73.22816 26347 ft 476 kts 30°
2026-05-04 10:45 24.05686 73.24859 26658 ft 477 kts 30°
2026-05-04 10:45 24.08433 73.26912 26944 ft 479 kts 30°
2026-05-04 10:46 24.11189 73.28973 27202 ft 481 kts 30°
2026-05-04 10:46 24.13957 73.31042 27491 ft 482 kts 30°
2026-05-04 10:46 24.16732 73.33118 27808 ft 484 kts 30°
2026-05-04 10:46 24.19517 73.35204 28072 ft 486 kts 30°
2026-05-04 10:47 24.22312 73.37298 28363 ft 488 kts 30°
2026-05-04 10:47 24.25118 73.39401 28640 ft 490 kts 30°
2026-05-04 10:47 24.27935 73.41513 28916 ft 492 kts 30°
2026-05-04 10:47 24.30757 73.43631 29188 ft 494 kts 30°
2026-05-04 10:49 24.50547 73.58514 31670 ft 491 kts 30°
2026-05-04 10:49 24.53365 73.60637 32004 ft 491 kts 30°
2026-05-04 10:50 24.56180 73.62760 32397 ft 491 kts 29°
2026-05-04 10:51 24.75785 73.77576 35036 ft 488 kts 29°
2026-05-04 10:52 24.78577 73.79692 35427 ft 487 kts 29°
2026-05-04 10:52 24.81368 73.81807 35773 ft 487 kts 29°
2026-05-04 10:52 24.84156 73.83920 36129 ft 488 kts 29°
2026-05-04 10:54 25.02886 73.98154 36757 ft 489 kts 29°
2026-05-04 10:54 25.05680 74.00280 36755 ft 489 kts 29°
2026-05-04 10:56 25.28147 74.17436 36769 ft 489 kts 30°
2026-05-04 10:57 25.33738 74.21715 36764 ft 490 kts 30°
2026-05-04 10:57 25.39347 74.26015 36767 ft 491 kts 30°
2026-05-04 10:58 25.44985 74.30342 36782 ft 495 kts 30°
2026-05-04 10:58 25.50643 74.34691 36783 ft 495 kts 30°
2026-05-04 10:59 25.56288 74.39032 36782 ft 493 kts 30°
2026-05-04 10:59 25.61906 74.43360 36777 ft 491 kts 30°
2026-05-04 11:00 25.67519 74.47686 36777 ft 492 kts 30°
2026-05-04 11:02 25.90095 74.65145 36783 ft 496 kts 31°
2026-05-04 11:05 26.32696 74.98318 36759 ft 502 kts 31°
2026-05-04 11:06 26.38376 75.02763 36791 ft 503 kts 31°
2026-05-04 11:06 26.44134 75.07249 36770 ft 505 kts 27°
2026-05-04 11:10 26.86372 75.34987 36762 ft 501 kts 26°
2026-05-04 11:12 27.10413 75.50876 36781 ft 503 kts 26°
2026-05-04 11:12 27.16439 75.54870 36781 ft 503 kts 26°
2026-05-04 11:13 27.22465 75.58871 36788 ft 503 kts 26°
2026-05-04 11:13 27.28491 75.62876 36783 ft 502 kts 26°
2026-05-04 11:14 27.29461 75.63522 36648 ft 499 kts 26°
2026-05-04 11:14 27.35490 75.67533 35064 ft 504 kts 27°
2026-05-04 11:16 27.58291 75.82755 29051 ft 499 kts 25°
2026-05-04 11:16 27.61280 75.84756 28134 ft 501 kts 26°
2026-05-04 11:16 27.64369 75.86525 27192 ft 496 kts 16°
2026-05-04 11:17 27.67511 75.87683 26269 ft 455 kts 11°
2026-05-04 11:17 27.70435 75.88683 25427 ft 424 kts 11°
2026-05-04 11:19 27.86874 75.94208 20690 ft 295 kts 11°
2026-05-04 11:19 27.88816 75.94861 20152 ft 290 kts 11°
2026-05-04 11:19 27.90752 75.95510 19606 ft 291 kts 12°
2026-05-04 11:19 27.92689 75.96165 19062 ft 289 kts 12°
2026-05-04 11:20 27.94576 75.96808 18526 ft 279 kts 12°
2026-05-04 11:20 27.96421 75.97431 17984 ft 275 kts 11°
2026-05-04 11:20 27.98251 75.98047 17443 ft 274 kts 11°
2026-05-04 11:20 28.00058 75.98659 17128 ft 270 kts 12°
2026-05-04 11:22 28.12589 76.02902 15899 ft 271 kts 12°
2026-05-04 11:22 28.14367 76.03508 15802 ft 262 kts 12°
2026-05-04 11:23 28.16123 76.04102 15694 ft 266 kts 12°
2026-05-04 11:23 28.17911 76.04707 15607 ft 269 kts 12°
2026-05-04 11:24 28.25698 76.13029 13225 ft 263 kts 59°
2026-05-04 11:25 28.26518 76.14857 12906 ft 258 kts 60°
2026-05-04 11:25 28.27320 76.16678 12643 ft 259 kts 60°
2026-05-04 11:25 28.28129 76.18510 12418 ft 260 kts 60°
2026-05-04 11:26 28.29745 76.22155 11949 ft 258 kts 60°
2026-05-04 11:27 28.35334 76.34803 10395 ft 252 kts 60°
2026-05-04 11:28 28.36115 76.36573 10181 ft 250 kts 60°
2026-05-04 11:28 28.36892 76.38338 9958 ft 250 kts 61°
2026-05-04 11:28 28.37662 76.40088 9732 ft 243 kts 60°
2026-05-04 11:28 28.38382 76.41728 9554 ft 226 kts 60°
2026-05-04 11:29 28.39082 76.43309 9350 ft 221 kts 61°
2026-05-04 11:29 28.39770 76.44872 9150 ft 222 kts 61°
2026-05-04 11:29 28.40462 76.46443 8934 ft 222 kts 61°
2026-05-04 11:29 28.41146 76.47998 8744 ft 219 kts 61°
2026-05-04 11:31 28.45832 76.58669 7414 ft 211 kts 64°
2026-05-04 11:33 28.50309 76.68890 6142 ft 200 kts 66°
2026-05-04 11:33 28.50924 76.70298 5946 ft 198 kts 66°
2026-05-04 11:33 28.51529 76.71677 5780 ft 190 kts 67°
2026-05-04 11:34 28.52127 76.73003 5599 ft 186 kts 62°
2026-05-04 11:34 28.52881 76.74163 5444 ft 180 kts 58°
2026-05-04 11:34 28.53595 76.75317 5276 ft 176 kts 59°
2026-05-04 11:34 28.54306 76.76458 5141 ft 176 kts 59°
2026-05-04 11:35 28.55005 76.77578 4981 ft 173 kts 59°
2026-05-04 11:35 28.55698 76.78678 4833 ft 172 kts 58°
2026-05-04 11:35 28.56399 76.79792 4693 ft 170 kts 59°
2026-05-04 11:35 28.57074 76.80866 4531 ft 167 kts 59°
2026-05-04 11:36 28.57759 76.81961 4394 ft 172 kts 59°
2026-05-04 11:36 28.58449 76.83058 4243 ft 168 kts 59°
2026-05-04 11:36 28.59122 76.84133 4094 ft 167 kts 59°
2026-05-04 11:36 28.59474 76.85349 3878 ft 162 kts 95°
2026-05-04 11:37 28.59271 76.86571 3779 ft 159 kts 100°
2026-05-04 11:37 28.59050 76.87816 3628 ft 159 kts 103°
2026-05-04 11:37 28.58806 76.89046 3488 ft 161 kts 104°
2026-05-04 11:37 28.58546 76.90270 3337 ft 154 kts 104°
2026-05-04 11:38 28.58294 76.91444 3206 ft 153 kts 104°
2026-05-04 11:38 28.58042 76.92620 3076 ft 149 kts 103°
2026-05-04 11:38 28.57800 76.93754 2948 ft 148 kts 103°
2026-05-04 11:38 28.57558 76.94891 2811 ft 146 kts 103°
2026-05-04 11:39 28.57318 76.96018 2703 ft 153 kts 104°
2026-05-04 11:39 28.57061 76.97213 2537 ft 147 kts 103°
2026-05-04 11:40 28.55811 77.03066 1558 ft 128 kts 103°
2026-05-04 11:41 28.55591 77.04079 1380 ft 135 kts 101°
2026-05-04 11:41 28.55383 77.05103 1200 ft 132 kts 102°
2026-05-04 11:41 28.55159 77.06126 1032 ft 134 kts 102°
2026-05-04 11:41 28.54948 77.07099 852 ft 123 kts 103°
2026-05-04 11:42 28.54757 77.08047 755 ft 110 kts 103°
2026-05-04 11:42 28.54610 77.08692 755 ft 65 kts 103°
2026-05-04 11:42 28.54514 77.09147 756 ft 53 kts 103°
2026-05-04 11:42 28.54482 77.09493 751 ft 36 kts 81°
2026-05-04 11:43 28.54529 77.09672 752 ft 7 kts 71°
2026-05-04 11:43 28.54544 77.09721 753 ft 7 kts 71°
2026-05-04 11:43 28.54561 77.09773 752 ft 6 kts 60°
2026-05-04 11:43 28.54580 77.09786 752 ft 2 kts 17°
2026-05-04 11:44 28.54607 77.09794 753 ft 6 kts 14°
2026-05-04 11:44 28.54650 77.09786 756 ft 6 kts 321°
2026-05-04 11:44 28.54673 77.09735 752 ft 9 kts 290°
2026-05-04 11:44 28.54690 77.09662 754 ft 11 kts 283°
2026-05-04 11:45 28.54709 77.09571 753 ft 13 kts 284°
2026-05-04 11:45 28.54733 77.09466 757 ft 14 kts 284°
2026-05-04 11:45 28.54760 77.09352 754 ft 16 kts 285°
2026-05-04 11:45 28.54791 77.09222 754 ft 18 kts 285°
2026-05-04 11:46 28.54820 77.09096 757 ft 16 kts 284°
2026-05-04 11:46 28.54852 77.08967 754 ft 18 kts 286°
2026-05-04 11:46 28.54878 77.08853 756 ft 12 kts 281°
2026-05-04 11:46 28.54925 77.08801 753 ft 9 kts 355°
2026-05-04 11:47 28.54983 77.08788 754 ft 9 kts 334°
2026-05-04 11:47 28.55020 77.08770 754 ft 1 kts
2026-05-04 11:47 28.55024 77.08773 754 ft 0 kts 26°
2026-05-04 11:47 28.55025 77.08774 754 ft 1 kts 34°
2026-05-04 11:48 28.55043 77.08796 752 ft 8 kts 51°
2026-05-04 11:48 28.55054 77.08817 752 ft 0 kts 60°